Regional Weather Roundup
Issued by NWS Grand Forks, ND

Home | Current Version | Previous Version | Graphics & Text | Print | Product List | Glossary On
Versions: 1 2 3 4 5 6 7 8 9 10 11 12 13 14 15 16 17 18 19 20 21 22 23 24 25 26 27 28 29 30 31 32 33 34 35 36 37 38 39 40 41 42 43 44 45 46 47 48 49 50
798
ASUS43 KFGF 221810
RWRFGF
PRAIRIE TO PINES  WEATHER ROUNDUP
NATIONAL WEATHER SERVICE EASTERN NORTH DAKOTA/GRAND FORKS ND
1200 PM CST THU FEB 22 2018

 **SATELLITE DATA USED TO AUGMENT SKY COVER AT AUTOMATED STATIONS**
 *****  WEATHER ACROSS EASTERN NORTH DAKOTA  *****

CITY           SKY/WX    TMP DP  RH WIND       PRES   REMARKS
GRAND FORKS    FAIR      10   3  73 S15       30.43F WCI  -7
6HR MIN TEMP:  -7; 6HR MAX TEMP:  10;

GRAND FRKS AFB FAIR      12   2  65 S12       30.41F WCI  -2
GRAND FRKS NWS   N/A     10   5  79 S9        30.40F WCI  -3
DEVILS LAKE    FAIR       9   1  70 SW8       30.33F WCI  -3
6HR MIN TEMP: -12; 6HR MAX TEMP:   9;

FARGO          CLOUDY    17   9  70 S17       30.44F WCI   1
WAHPETON ARPT  CLOUDY    19  10  68 S20       30.45F WCI   4
$$

 ***** WEATHER ACROSS CENTRAL AND WESTERN NORTH DAKOTA  *****

CITY           SKY/WX    TMP DP  RH WIND       PRES   REMARKS
BISMARCK       FAIR       8   1  73 SE6       30.31F WCI  -2
6HR MIN TEMP: -11; 6HR MAX TEMP:   8;

MINOT          FAIR      13  -2  51 CALM      30.27F
6HR MIN TEMP:  -5; 6HR MAX TEMP:  13;

JAMESTOWN      FAIR      16   8  71 S7        30.33F WCI   6
6HR MIN TEMP:  -4; 6HR MAX TEMP:  16;

MINOT AFB      FAIR      10  -3  57 W5        30.26F WCI   1
GARRISON         N/A      5  -3  69 CALM      30.26F
WILLISTON      FAIR       3  -7  63 SW6       30.27R WCI  -8
6HR MIN TEMP: -15; 6HR MAX TEMP:   3;

DICKINSON      FAIR      10  -1  61 NW7       30.16F WCI  -1
6HR MIN TEMP: -10; 6HR MAX TEMP:  10;

HETTINGER      FAIR       6  -2  69 CALM      30.18F
6HR MIN TEMP: -25; 6HR MAX TEMP:   6;

$$

 *****  OTHER AIRPORT OBSERVATIONS IN OUR AREA  *****

CITY           SKY/WX    TMP DP  RH WIND       PRES   REMARKS
WALHALLA       FAIR      16   5  62 S8        30.36F WCI   5
GRAFTON AIRPOR FAIR       9   1  72 S15G22    30.43F WCI  -8
VALLEY CITY AR FAIR      14  10  85 S14       30.38F WCI  -1
CANDO          FAIR      10   1  67 S7        30.33F WCI   0
CAVALIER APRT    N/A      7   1  78 S12       30.38F WCI  -9
GWINNER          N/A     19  10  68 SE6       30.39F WCI  11
SHEYENNE NWR     N/A     21  11  65 S14       29.95S WCI   8
ROLLA          FAIR      12   1  62 SW13      30.26F WCI  -3
 ***** THE ABOVE OBSERVATIONS ARE NON NWS ARE NOT QUALITY
       CONTROLLED AND MAY MIS-REPORT RAIN FOR SNOW...
$$

  *****  WEATHER ACROSS NORTHERN MINNESOTA  *****

CITY           SKY/WX    TMP DP  RH WIND       PRES   REMARKS
FLAG ISLAND    FAIR       7   0  72 S9        30.42F WCI  -7
WARROAD        FAIR      19   7  58 SW9       30.43F WCI   9
ROSEAU         FAIR      18   9  68 SW13G18   30.42F WCI   4
HALLOCK        FAIR       9   3  78 S18       30.41F WCI -10
THF RVR FALLS  FAIR      17   8  67 SW15      30.43F WCI   2
6HR MIN TEMP:  -6; 6HR MAX TEMP:  17;

BAUDETTE       FAIR      20   0  41 S12       30.43S WCI   8
6HR MIN TEMP: -12; 6HR MAX TEMP:  20;

WASKISH        FAIR      25   1  36 S9        30.44F WCI  15
CROOKSTON      FAIR      14   9  79 S15       30.45F WCI  -1
STEPHEN NDAWN    N/A     10   3  72 S16         N/A  WCI  -7
GREENBUSH NDAW   N/A     12   7  79 S15         N/A  WCI  -4
$$
  *****  WEATHER ACROSS CENTRAL AND WEST MINNESOTA  *****

CITY           SKY/WX    TMP DP  RH WIND       PRES   REMARKS
FOSSTON        FAIR      21   3  45 SW7       30.43F WCI  13
BEMIDJI        FAIR      22   1  39 S13G18    30.43F WCI  10
6HR MIN TEMP: -14; 6HR MAX TEMP:  22;

PARK RAPIDS    FAIR      18   3  52 S12       30.44F WCI   5
6HR MIN TEMP:  -6; 6HR MAX TEMP:  18;

ELBOW LAKE     CLOUDY    18   8  65 E15       30.46F WCI   3
6HR MIN TEMP:   5; 6HR MAX TEMP:  18;

WADENA         CLOUDY    18   3  53 SE13      30.46F WCI   4
DETROIT LAKES  HVY SNOW  21   9  58 S14       30.44S VSB 1/4 WCI   8
MOORHEAD       PTSUNNY   18   9  68 S16       30.45F WCI   3
FERGUS FALLS   CLOUDY    19   9  63 S17       30.46F WCI   4
MORRIS MN      PTSUNNY   21  12  68 SE15      30.44F WCI   8
STAPLES        CLOUDY    19   1  45 S7        30.47F WCI  10
$$
  *****  WEATHER ELSEWHERE ACROSS MINNESOTA  *****

CITY           SKY/WX    TMP DP  RH WIND       PRES   REMARKS
DULUTH         FAIR      19   2  47 S8        30.52F WCI   9
6HR MIN TEMP:  -5; 6HR MAX TEMP:  19;

INTRNTL FALLS  FAIR      22   0  38 VRB6      30.46F WCI  14
6HR MIN TEMP: -18; 6HR MAX TEMP:  22;

ELY            FAIR      23   1  39 S6        30.49F WCI  16
CLOQUET        FAIR      19   1  45 SE3       30.52F
WHEATON        CLOUDY    18  10  73 SE14G20   30.46F WCI   4
BRAINERD       PTSUNNY   19   2  47 SE5       30.50F WCI  12
6HR MIN TEMP: -10; 6HR MAX TEMP:  19;

HIBBING        FAIR      20   0  41 VRB7      30.49F WCI  11
6HR MIN TEMP: -18; 6HR MAX TEMP:  20; 6HR PCP: TRACE;

ALEXANDRIA     CLOUDY    19   7  59 SE13      30.46F WCI   6
6HR MIN TEMP:   2; 6HR MAX TEMP:  19;

SAINT CLOUD    CLOUDY    19   8  62 E5        30.50F WCI  12
6HR MIN TEMP:  -9; 6HR MAX TEMP:  19;

MINNEAPOLIS    CLOUDY    24  13  62 SE12      30.52F WCI  13
6HR MIN TEMP:  11; 6HR MAX TEMP:  24;

$$

  *****  WEATHER ACROSS SOUTH DAKOTA  *****

CITY           SKY/WX    TMP DP  RH WIND       PRES   REMARKS
SIOUX FALLS    CLOUDY    23  17  78 E9        30.38F WCI  13
6HR MIN TEMP:  16; 6HR MAX TEMP:  23; 6HR PCP: TRACE;

BROOKINGS      PTSUNNY   23  17  78 SE10      30.39S WCI  12
WATERTOWN      CLOUDY    23  18  81 S9        30.36F WCI  13
6HR MIN TEMP:   7; 6HR MAX TEMP:  23;

HURON          CLOUDY    23  17  78 SE10      30.37F WCI  12
6HR MIN TEMP:  13; 6HR MAX TEMP:  23;

SISSETON         N/A     19  12  74 S13       30.42F WCI   6
ABERDEEN       CLOUDY    23  16  74 S14       30.38F WCI  11
6HR MIN TEMP:  -2; 6HR MAX TEMP:  23;

MITCHELL       FLURRIES  22  18  85 S12       30.39F WCI  10
PIERRE         CLOUDY    18  14  84 E10       30.28S WCI   6
6HR MIN TEMP:   4; 6HR MAX TEMP:  18;

MOBRIDGE       FAIR      10   3  73 CALM      30.26F
RAPID CITY     FAIR      10   3  73 NW3       30.11F
6HR MIN TEMP:  -5; 6HR MAX TEMP:  10;

$$

  *****  SOME WEATHER IN NEARBY STATES *****

CITY           SKY/WX    TMP DP  RH WIND       PRES   REMARKS
GLASGOW MT     FAIR     -11 -18  71 NW9       30.25R WCI -29
6HR MIN TEMP: -22; 6HR MAX TEMP: -11;

GREAT FALLS MT FAIR       5  -2  72 SW6       30.17R WCI  -6
6HR MIN TEMP:  -3; 6HR MAX TEMP:   6;

CHEYENNE WY    CLOUDY    22  12  65 CALM      29.91F
6HR MIN TEMP:   7; 6HR MAX TEMP:  22;

SCOTTSBLUFF NE LGT SNOW  20  17  88 SE9       30.06F VSB 1   WCI   9
6HR MIN TEMP:   5; 6HR MAX TEMP:  20; 6HR PCP:  0.01;

OMAHA NE       CLOUDY    27  23  85 E7        30.36F WCI  19
6HR MIN TEMP:  23; 6HR MAX TEMP:  27; 6HR PCP:  0.04;

DES MOINES IA  FRZ RAIN  28  25  88 SE9       30.40F FOG     WCI  19
6HR MIN TEMP:  25; 6HR MAX TEMP:  29; 6HR PCP:  0.02;

DAVENPORT IA   CLOUDY    35  27  72 E17       30.47F WCI  25
6HR MIN TEMP:  28; 6HR MAX TEMP:  35;

CHICAGO IL     PTSUNNY   39  27  62 E14       30.51F
6HR MIN TEMP:  32; 6HR MAX TEMP:  40;

EAU CLAIRE WI  CLOUDY    24  11  57 E7        30.55F WCI  16
6HR MIN TEMP:   4; 6HR MAX TEMP:  25;

LA CROSSE WI   CLOUDY    27  17  66 E6        30.55S WCI  20
6HR MIN TEMP:  21; 6HR MAX TEMP:  28;

$$

  *****  SOME NATIONAL WEATHER *****

CITY           SKY/WX    TMP DP  RH WIND       PRES   REMARKS
LA GUARDIA NY  CLOUDY    45  31  58 NE13      30.55F
6HR MIN TEMP:  45; 6HR MAX TEMP:  47; 6HR PCP:  0.01;

RALEIGH NC     PTSUNNY   70  62  76 SW14      30.46F
6HR MIN TEMP:  65; 6HR MAX TEMP:  71;

ATLANTA GA     PTSUNNY   76  65  68 SE7       30.44F
6HR MIN TEMP:  63; 6HR MAX TEMP:  77;

NEW ORLEANS LA FAIR      82  68  62 S15G24    30.30F
6HR MIN TEMP:  71; 6HR MAX TEMP:  83;

OKLAHOMA CITY  TSTM      30  30 100 VRB6      30.23F FOG     WCI  24
6HR MIN TEMP:  28; 6HR MAX TEMP:  31; 6HR PCP:  0.21;

ALBUQUERQUE NM FLURRIES  43  39  87 CALM      30.11R
6HR MIN TEMP:  31; 6HR MAX TEMP:  36; 6HR PCP:  0.01;

SALT LAKE CITY PTSUNNY   31  15  52 SE10      29.98R WCI  22
6HR MIN TEMP:  22; 6HR



USA.gov is the U.S. government's official web portal to all federal, state and local government web resources and services.